Flag for Saudi Arabia Weather past 2 weeks in Haql, Saudi Arabia

Now
81 °F

Clear.


Feels Like: 80 °F
Forecast: 72 / 94 °F
Wind: 2 mph from North

Location: Eilat


UV Index: 7 (High)

Visibility: 10 mi


Pressure: 29.77 "Hg

Humidity: 37%

Dew point: 52 °F

Location of HaqlLocation

Historic Weather in Haql

°F

Haql temperature yesterday

Maximum temperature yesterday: 97 °F (at 2:50 PM)
Minimum temperature yesterday: 70 °F (at 6:50 AM)
Average temperature yesterday: 86 °F

Past Weeks' High & Low Weather Summary

 TemperatureHumidityPressure
High106 °F (Apr 20, 4:50 PM)64% (Apr 13, 6:50 AM)30.07 "Hg (Apr 13, 6:50 AM)
Low63 °F (Apr 11, 6:50 AM)9% (Apr 19, 9:50 AM)29.71 "Hg (Apr 16, 3:50 PM)
Average83 °F28%29.91 "Hg
* Reported Apr 9 9:50 PM — Apr 24 9:50 PM, Haql, Weather by CustomWeather, © 2014

Note: Actual official high and low records may vary slightly from our data, if they occured in-between our weather recording intervals... More about our weather records

Advertising

Historic Weather Conditions — Data for Previous 24 hours

 ConditionsComfort  
Time TempWeatherWind HumidityBarometerVisibility
9:50 PM
Apr 24
81 °FClear.2 mph37%29.77 "Hg10 mi
8:50 PM82 °FClear.5 mph40%29.74 "Hg10 mi
7:50 PM84 °FSunny.1 mph40%29.71 "Hg10 mi
6:50 PM90 °FSunny.3 mph22%29.71 "Hg10 mi
5:50 PM91 °FSunny.5 mph26%29.71 "Hg10 mi
4:50 PM91 °FSunny.3 mph30%29.71 "Hg10 mi
3:50 PM91 °FSunny.7 mph23%29.74 "Hg10 mi
2:50 PM93 °FSunny.10 mph23%29.77 "Hg10 mi
1:50 PM99 °FSunny.3 mph17%29.77 "Hg10 mi
12:50 PM95 °FSunny.9 mph19%29.80 "Hg10 mi
11:50 AM91 °FSunny.13 mph23%29.80 "Hg10 mi
10:50 AM88 °FSunny.15 mph27%29.83 "Hg10 mi
9:50 AM84 °FSunny.20 mph29%29.83 "Hg10 mi
8:50 AM82 °FSunny.18 mph30%29.86 "Hg10 mi
7:50 AM79 °FSunny.16 mph34%29.86 "Hg10 mi
6:50 AM75 °FClear.14 mph36%29.83 "Hg10 mi
5:50 AM75 °FClear.15 mph36%29.83 "Hg10 mi
10:50 PM
Apr 23
82 °FClear.16 mph23%29.89 "Hg10 mi
Weather by CustomWeather, © 2014

See weather overview